When you browse on this site, cookies collect data to enhance your experience and personalize the content and advertising you see.
Visit our Privacy Policy to learn more. By continuing to use the site, you agree to this use of cookies and data.
  • In United Kingdom
  • List of Countries
  • For 7 days
  • Water Temperature
  • Weather Map
  • Weather Widgets
  • user-avatar
    Login

    Hourly Weather Pivnichne

    Today, 18 October, Friday

    Time Temperature Precipitation Wind Pressure Humidity
    00:00 +13°C° 0 mm 1 mps 747 mmHg 69%
    01:00 +13°C° 0 mm 1 mps 747 mmHg 71%
    02:00 +12°C° 0 mm 1 mps 747 mmHg 72%
    03:00 +12°C° 0 mm 1 mps 747 mmHg 74%
    04:00 +12°C° 0 mm 1 mps 747 mmHg 76%
    05:00 +11°C° 0 mm 1 mps 747 mmHg 78%
    06:00 +12°C° 0 mm 1 mps 747 mmHg 76%
    07:00 +13°C° 0 mm 1 mps 747 mmHg 74%
    08:00 +14°C° 0 mm 1 mps 747 mmHg 72%
    09:00 +15°C° 0 mm 1 mps 747 mmHg 67%
    10:00 +18°C° 0 mm 1 mps 747 mmHg 63%
    11:00 +19°C° 0 mm 1 mps 747 mmHg 58%
    12:00 +20°C° 0 mm 1 mps 747 mmHg 56%
    13:00 +20°C° 0 mm 1 mps 747 mmHg 53%
    14:00 +21°C° 0 mm 1 mps 747 mmHg 51%
    15:00 +19°C° 0 mm 1 mps 747 mmHg 55%
    16:00 +18°C° 0 mm 1 mps 747 mmHg 58%
    17:00 +15°C° 0 mm 1 mps 747 mmHg 62%
    18:00 +15°C° 0 mm 1 mps 747 mmHg 64%
    19:00 +14°C° 0 mm 1 mps 747 mmHg 66%
    20:00 +13°C° 0 mm 1 mps 747 mmHg 67%
    21:00 +13°C° 0 mm 1 mps 747 mmHg 69%
    22:00 +12°C° 0 mm 1 mps 747 mmHg 71%
    23:00 +12°C° 0 mm 1 mps 747 mmHg 74%

    Tomorrow, 19 October, Saturday

    Time Temperature Precipitation Wind Pressure Humidity
    00:00 +12°C° 0 mm 1 mps 747 mmHg 75%
    01:00 +11°C° 0 mm 1 mps 747 mmHg 77%
    02:00 +11°C° 0 mm 1 mps 747 mmHg 79%
    03:00 +11°C° 0 mm 1 mps 748 mmHg 80%
    04:00 +10°C° 0 mm 1 mps 748 mmHg 81%
    05:00 +10°C° 0 mm 1 mps 748 mmHg 83%
    06:00 +11°C° 0 mm 1 mps 748 mmHg 80%
    07:00 +12°C° 0 mm 1 mps 748 mmHg 77%
    08:00 +13°C° 0 mm 1 mps 748 mmHg 74%
    09:00 +14°C° 0 mm 1 mps 748 mmHg 68%
    10:00 +16°C° 0 mm 1 mps 749 mmHg 63%
    11:00 +19°C° 0 mm 1 mps 749 mmHg 57%
    12:00 +19°C° 0 mm 1 mps 749 mmHg 55%
    13:00 +20°C° 0 mm 1 mps 749 mmHg 53%
    14:00 +21°C° 0 mm 1 mps 748 mmHg 51%
    15:00 +19°C° 0 mm 1 mps 748 mmHg 56%
    16:00 +18°C° 0 mm 1 mps 748 mmHg 61%
    17:00 +16°C° 0 mm 2 mps 748 mmHg 67%
    18:00 +15°C° 0 mm 2 mps 748 mmHg 69%
    19:00 +14°C° 0 mm 2 mps 749 mmHg 72%
    20:00 +14°C° 0 mm 2 mps 749 mmHg 74%
    21:00 +13°C° 0 mm 2 mps 749 mmHg 76%
    22:00 +13°C° 0 mm 2 mps 749 mmHg 78%
    23:00 +13°C° 0 mm 2 mps 749 mmHg 80%

    Day after tomorrow, 20 October, Sunday

    Time Temperature Precipitation Wind Pressure Humidity
    00:00 +12°C° 0 mm 2 mps 749 mmHg 82%
    01:00 +12°C° 0 mm 2 mps 749 mmHg 83%
    02:00 +12°C° 0 mm 2 mps 749 mmHg 85%
    03:00 +12°C° 0 mm 2 mps 749 mmHg 85%
    04:00 +10°C° 0 mm 2 mps 749 mmHg 86%
    05:00 +10°C° 0 mm 2 mps 749 mmHg 86%
    06:00 +12°C° 0 mm 2 mps 750 mmHg 83%
    07:00 +13°C° 0 mm 2 mps 750 mmHg 79%
    08:00 +13°C° 0 mm 2 mps 750 mmHg 76%
    09:00 +15°C° 0 mm 2 mps 750 mmHg 68%
    10:00 +17°C° 0 mm 3 mps 750 mmHg 60%
    11:00 +19°C° 0 mm 3 mps 750 mmHg 52%
    12:00 +19°C° 0 mm 3 mps 750 mmHg 50%
    13:00 +20°C° 0 mm 3 mps 750 mmHg 47%
    14:00 +20°C° 0 mm 3 mps 750 mmHg 45%
    15:00 +19°C° 0 mm 3 mps 750 mmHg 49%
    16:00 +18°C° 0 mm 2 mps 749 mmHg 53%
    17:00 +16°C° 0 mm 2 mps 749 mmHg 57%
    18:00 +16°C° 0 mm 2 mps 749 mmHg 58%
    19:00 +15°C° 0 mm 2 mps 750 mmHg 60%
    20:00 +15°C° 0 mm 2 mps 750 mmHg 61%
    21:00 +14°C° 0 mm 2 mps 750 mmHg 62%
    22:00 +14°C° 0 mm 2 mps 750 mmHg 63%
    23:00 +13°C° 0 mm 2 mps 750 mmHg 64%

    21 October, Monday

    Time Temperature Precipitation Wind Pressure Humidity
    00:00 +13°C° 0 mm 2 mps 750 mmHg 66%
    01:00 +12°C° 0 mm 2 mps 750 mmHg 67%
    02:00 +12°C° 0 mm 2 mps 750 mmHg 69%
    03:00 +12°C° 0 mm 2 mps 750 mmHg 70%
    04:00 +10°C° 0 mm 2 mps 750 mmHg 72%
    05:00 +10°C° 0 mm 2 mps 750 mmHg 73%
    06:00 +12°C° 0 mm 2 mps 750 mmHg 71%
    07:00 +13°C° 0 mm 2 mps 750 mmHg 70%
    08:00 +13°C° 0 mm 2 mps 750 mmHg 68%
    09:00 +15°C° 0 mm 2 mps 750 mmHg 63%
    10:00 +17°C° 0 mm 3 mps 750 mmHg 57%
    11:00 +19°C° 0 mm 3 mps 750 mmHg 52%
    12:00 +20°C° 0 mm 3 mps 750 mmHg 50%
    13:00 +20°C° 0 mm 3 mps 750 mmHg 49%
    14:00 +21°C° 0 mm 3 mps 750 mmHg 47%
    15:00 +19°C° 0 mm 2 mps 750 mmHg 51%
    16:00 +18°C° 0 mm 2 mps 749 mmHg 56%
    17:00 +16°C° 0 mm 2 mps 749 mmHg 60%
    18:00 +16°C° 0 mm 2 mps 749 mmHg 62%
    19:00 +15°C° 0 mm 2 mps 749 mmHg 64%
    20:00 +15°C° 0 mm 2 mps 749 mmHg 66%
    21:00 +14°C° 0 mm 2 mps 749 mmHg 67%
    22:00 +14°C° 0 mm 2 mps 749 mmHg 68%
    23:00 +13°C° 0 mm 2 mps 749 mmHg 70%

    22 October, Tuesday

    Time Temperature Precipitation Wind Pressure Humidity
    00:00 +12°C° 0 mm 3 mps 749 mmHg 70%
    01:00 +12°C° 0 mm 3 mps 749 mmHg 71%
    02:00 +12°C° 0 mm 3 mps 749 mmHg 71%
    03:00 +11°C° 0 mm 3 mps 748 mmHg 73%
    04:00 +11°C° 0 mm 3 mps 748 mmHg 74%
    05:00 +11°C° 0 mm 3 mps 748 mmHg 75%
    06:00 +11°C° 0 mm 4 mps 748 mmHg 73%
    07:00 +12°C° 0 mm 4 mps 748 mmHg 71%
    08:00 +13°C° 0 mm 4 mps 748 mmHg 69%
    09:00 +15°C° 0 mm 5 mps 748 mmHg 62%
    10:00 +16°C° 0 mm 5 mps 747 mmHg 56%
    11:00 +19°C° 0 mm 5 mps 747 mmHg 50%
    12:00 +20°C° 0 mm 6 mps 747 mmHg 49%
    13:00 +20°C° 0 mm 6 mps 747 mmHg 47%
    14:00 +21°C° 0 mm 6 mps 746 mmHg 46%
    15:00 +19°C° 0 mm 5 mps 746 mmHg 52%
    16:00 +18°C° 0 mm 4 mps 746 mmHg 59%
    17:00 +17°C° 0 mm 3 mps 746 mmHg 65%
    18:00 +16°C° 0 mm 3 mps 746 mmHg 70%
    19:00 +14°C° 0 mm 3 mps 746 mmHg 75%
    20:00 +14°C° 0 mm 3 mps 746 mmHg 80%
    21:00 +13°C° 0 mm 3 mps 747 mmHg 82%
    22:00 +12°C° 0 mm 3 mps 747 mmHg 84%
    23:00 +12°C° 0 mm 4 mps 747 mmHg 87%

    23 October, Wednesday

    Time Temperature Precipitation Wind Pressure Humidity
    00:00 +11°C° 0 mm 3 mps 747 mmHg 87%
    01:00 +11°C° 0 mm 3 mps 747 mmHg 87%
    02:00 +10°C° 0 mm 3 mps 748 mmHg 87%
    03:00 +11°C° 0 mm 3 mps 748 mmHg 80%
    04:00 +11°C° 0 mm 3 mps 748 mmHg 74%
    05:00 +12°C° 0 mm 3 mps 749 mmHg 68%
    06:00 +12°C° 0 mm 3 mps 749 mmHg 69%
    07:00 +11°C° 0 mm 3 mps 749 mmHg 71%
    08:00 +11°C° 0 mm 3 mps 749 mmHg 73%
    09:00 +12°C° 0 mm 3 mps 750 mmHg 68%
    10:00 +13°C° 0 mm 3 mps 750 mmHg 63%
    11:00 +14°C° 0 mm 3 mps 750 mmHg 58%
    12:00 +16°C° 0 mm 3 mps 750 mmHg 55%
    13:00 +16°C° 0 mm 2 mps 750 mmHg 53%
    14:00 +17°C° 0 mm 2 mps 750 mmHg 50%
    15:00 +16°C° 0 mm 2 mps 750 mmHg 56%
    16:00 +14°C° 0 mm 2 mps 750 mmHg 62%
    17:00 +13°C° 0 mm 2 mps 750 mmHg 68%
    18:00 +13°C° 0 mm 2 mps 750 mmHg 72%
    19:00 +12°C° 0 mm 2 mps 751 mmHg 77%
    20:00 +10°C° 0 mm 2 mps 751 mmHg 81%
    21:00 +10°C° 0 mm 2 mps 751 mmHg 83%
    22:00 +10°C° 0 mm 2 mps 751 mmHg 85%
    23:00 +9°C° 0 mm 2 mps 751 mmHg 87%
    Show more